Location: *
(41.7492°S, 135.4150°W)
Time: 02:56:28
(UTC+00:00)

AO-27 - Pass Details

Date: 02 July 2022
Orbit: 786 x 796 km, 98.9° (Epoch: 14 August)

Event Time Altitude Azimuth Distance (km) Brightness Sun altitude
Rises 14:19:21 0° 72° (ENE) 3,309 12.3 -23.5°
Reaches altitude 10° 14:23:13 10° 101° (E) 2,388 11.1 -22.8°
Maximum altitude 14:25:11 12° 123° (ESE) 2,244 10.6 -22.4°
Drops below altitude 10° 14:27:09 10° 145° (SE) 2,396 10.4 -22.1°
Sets 14:31:01 0° 174° (S) 3,334 10.8 -21.3°
